Regional Weather Roundup
Issued by NWS Albany, NY

Home | Current Version | Previous Version | Text Only | Print | Product List | Glossary On
Versions: 1 2 3 4 5 6 7 8 9 10 11 12 13 14 15 16 17 18 19 20 21 22 23 24 25 26 27
000
ASUS41 KALY 211710
RWRALY

NEW YORK STATE HOURLY WEATHER ROUNDUP
NATIONAL WEATHER SERVICE ALBANY NY
1200 PM EST WED FEB 21 2018

NOTE: "FAIR" INDICATES FEW OR NO CLOUDS BELOW 12,000 FEET WITH NO
SIGNIFICANT WEATHER AND/OR NO OBSTRUCTIONS TO VISIBILITY.

NYZ032-033-038>043-046>054-057>066-NYZ062>081-082-084-211800-
EAST


CITY           SKY/WX    TMP DP  RH WIND       PRES   REMARKS
ALBANY         PTSUNNY   67  54  63 S17G23    30.12F
GLENS FALLS    FAIR      57  54  89 S12       30.09F
POUGHKEEPSIE   FAIR      69  55  60 SW12      30.19F
NEWBURGH       MOSUNNY   68  59  73 W14G25    30.22F
MONTGOMERY     FAIR      66  56  70 SW12G24   30.21F
WHITE PLAINS   FAIR      69  58  67 VRB7      30.23F
ISLIP          FOG       52  52 100 SW14      30.27F VSB 1/4
NEW YORK CITY  FAIR      70  58  65 SW13G21   30.24F
CENTRAL PARK   FAIR      72  58  61 MISG      30.26F
$$

NYZ005>009-017-018-044>046-055-056-211800-
CENTRAL


CITY           SKY/WX    TMP DP  RH WIND       PRES   REMARKS
FULTON         LGT RAIN  44  42  93 NW17      30.24R FOG
SYRACUSE       LGT RAIN  50  48  93 NW24G32   30.20R
ROME           CLOUDY    68  54  60 W18G26    30.09R
ELMIRA         CLOUDY    71  55  56 SW15      30.16R
BINGHAMTON     PTSUNNY   68  53  58 SW20G30   30.17S
MONTICELLO     FAIR      61  57  87 CALM      30.23F
$$

NYZ026>034-041>043-087-211800-
NORTH


CITY           SKY/WX    TMP DP  RH WIND       PRES   REMARKS
WATERTOWN      LGT RAIN  47  47 100 SW8       30.17R VSB 1
FORT DRUM      NOT AVBL
OGDENSBURG     DRIZZLE   51  50  96 W10G20    30.11R
MASSENA        LGT RAIN  50  50 100 W10       30.11R FOG
SARANAC LAKE   CLOUDY    62  52  69 SW13G23   30.03R
PLATTSBURGH    CLOUDY    57  49  74 N12       30.01R
$$

NYZ001>004-010>016-019>021-085-211800-
WEST


CITY           SKY/WX    TMP DP  RH WIND       PRES   REMARKS
NIAGARA FALLS  LGT RAIN  41  34  76 NW12      30.31R
BUFFALO        LGT RAIN  39  37  92 NW8       30.32R WCI  33
DUNKIRK        LGT RAIN  39  39 100 NE7       30.35R WCI  34
JAMESTOWN        N/A    N/A N/A N/A MISG        N/A
WELLSVILLE     LGT RAIN  57  53  86 NW20      30.25R
ROCHESTER      CLOUDY    41  38  89 NW12G22   30.29R
PENN YAN       CLOUDY    50  45  83 VRB7      30.23R
$$

             KEY
       WCI = WIND CHILL INDEX
       VSB = VISIBILITY
       HX  = HEAT INDEX
$$




USA.gov is the U.S. government's official web portal to all federal, state and local government web resources and services.